Simultaneous Nadir Overpasses (SNOs) Predictions

Prediction of SNOs between METOP-A and NOAA-19 Satellite Orbit:

Table of predicted SNOs for the next 14.0 days since TLE Epoch: 3/1/2012
Index Date (METOP-A) Time (METOP-A) METOP-A Lat,Lon Date (NOAA-19) Time (NOAA-19) NOAA-19 Lat,Lon Distance(km) Time Diff (sec)
1 03/08/2012 20:15:26 73.28,-130.86 03/08/2012 20:14:13 73.29,-131.64 25.02 73
2 03/08/2012 21:06:12 -73.09, 36.06 03/08/2012 21:05:15 -73.09, 36.02 1.09 57
3 03/08/2012 21:56:52 73.06,-156.68 03/08/2012 21:56:14 73.07,-156.67 1.27 38
4 03/08/2012 22:47:35 -73.02, 10.57 03/08/2012 22:47:19 -73.02, 10.66 2.85 16
5 03/08/2012 23:38:14 73.04, 177.94 03/08/2012 23:38:19 73.05, 177.85 2.94 5
6 03/09/2012 00:28:57 -73.00, -14.81 03/09/2012 00:29:24 -73.00, -14.82 0.44 27
7 03/09/2012 01:19:37 72.97, 152.45 03/09/2012 01:20:23 72.97, 152.49 1.47 46
8 03/09/2012 02:10:19 -72.98, -40.19 03/09/2012 02:11:29 -72.98, -40.30 3.49 70
9 03/09/2012 03:01:10 72.39, 125.92 03/09/2012 03:02:18 72.45, 128.06 72.38 68




NCC Satellite Simultaneous Nadir Overpasses (SNOs) Prediction Service
